Regional Weather Roundup
Issued by NWS

Home | Current Version | Previous Version | Text Only | Print | Product List | Glossary Off
Versions: 1 2 3 4 5 6 7 8 9 10 11 12 13 14 15 16 17 18 19 20 21 22 23 24 25 26 27 28 29 30 31 32 33 34 35 36 37 38 39 40 41 42 43 44 45 46 47 48 49 50

000
ASUS43 KMPX 200810
RWRMN
WEATHER ROUNDUP FOR MINNESOTA
NATIONAL WEATHER SERVICE TWIN CITIES/CHANHASSEN MN
300 AM CDT MON OCT 20 2014


NOTE: "FAIR" INDICATES FEW OR NO CLOUDS BELOW 12,000 FEET WITH NO
SIGNIFICANT WEATHER AND/OR OBSTRUCTIONS TO VISIBILITY. N/A MEANS
CURRENT SKY AND/OR WEATHER CONDITIONS ARE NOT AVAILABLE.

MNZ060>063-068>070-200900-
   Twin Cities Metro

CITY           SKY/WX    TMP DP  RH WIND       PRES   REMARKS
TWIN CITIES    PTCLDY    49  41  74 NW7       29.91R
ST PAUL        CLEAR     49  42  77 NW7       29.91R
CRYSTAL        PTCLDY    50  42  74 W7        29.89R
BLAINE         CLEAR     48  43  81 W5        29.90R
LAKEVILLE      CLEAR     46  41  81 W7        29.91R
EDEN PRAIRIE   PTCLDY    52  43  71 NW5       29.90R
SOUTH ST PAUL  CLEAR     52  42  68 NW5       29.90R
LAKE ELMO      FAIR      48  43  81 NW6       29.90R
$$
MNZ001>005-007-008-013>017-022>024-027-028-200900-
   Northwest Minnesota

CITY           SKY/WX    TMP DP  RH WIND       PRES   REMARKS
BEMIDJI        CLEAR     39  36  90 NW6       29.92R
HALLOCK        CLEAR     39  36  87 NW6       29.97R
ROSEAU         CLEAR     39  36  87 NW5       29.95R
WARROAD        CLEAR     41  37  87 NW7       29.94R
THIEF RVR FALL CLEAR     43  37  81 NW6       29.95R
CROOKSTON      CLEAR     39  36  87 NW5       29.97R
FOSSTON        CLEAR     39  37  93 NW6       29.95R
DETROIT LAKES  CLEAR     43  37  81 NW5       29.95S
MOORHEAD       CLEAR     43  39  87 NW3       29.97R
PARK RAPIDS    CLEAR     40  38  93 NW9       29.91R
MAHNOMEN       FAIR      39  37  91 NW3       29.94R
$$
MNZ006-009>011-018-025>026-200900-
   North Central Minnesota

CITY           SKY/WX    TMP DP  RH WIND       PRES   REMARKS
BAUDETTE       CLEAR     44  41  89 NW9       29.91R
FLAG ISLAND    CLEAR     45  39  81 NW13      29.91R
INTL FALLS     PTCLDY    34  34 100 CALM      29.88R
WASKISH        CLEAR     45  43  93 CALM      29.91R
BIG FORK       CLEAR     43  39  87 CALM      29.89R
LONGVILLE      CLEAR     37  37 100 CALM      29.90S
GRAND RAPIDS   PTCLDY    45  37  76 NW8       29.88S
CRANE LAKE     CLOUDY    46  43  87 NW3         N/A
ORR            CLOUDY    45  39  81 NW5       29.85R
COOK           CLOUDY    45  41  87 W6        29.87R
WALKER         FAIR      44  39  83 NW3       29.91R
$$
MNZ012-019>021-037-200900-
   Northeast Minnesota

CITY           SKY/WX    TMP DP  RH WIND       PRES   REMARKS
DULUTH         CLEAR     47  40  76 NW13      29.83R
ELY            CLOUDY    46  39  76 NW5       29.84R
HIBBING        CLEAR     41  37  86 NW6       29.86R
EVELETH        PTCLDY    43  39  87 W5        29.87R
DULUTH HARBOR  CLEAR     50  45  81 W9        29.85R
TWO HARBORS    CLEAR     48  32  53 W3        29.81R
SILVER BAY     CLEAR     48  41  76 NW3       29.80S
GRAND MARAIS     N/A     50  42  74 CALM      29.80R
G MARAIS ARPRT CLOUDY    43  37  81 NW7       29.79S
$$
MNZ029>031-032-039>041-046>048-054>057-064-200900-
   West Central Minnesota

CITY           SKY/WX    TMP DP  RH WIND       PRES   REMARKS
FERGUS FALLS   CLEAR     39  32  75 NW5       29.97S
WHEATON        CLEAR     43  36  75 W5        30.00R
MORRIS         CLEAR     39  36  87 W7        29.95S
ALEXANDRIA     CLEAR     44  39  82 W6        29.95S
ELBOW LAKE     FAIR      40  36  84 NW7       29.96R
WADENA         CLEAR     43  39  87 W6        29.93R
GLENWOOD       CLEAR     45  39  81 W7        29.95S
APPLETON       CLEAR     39  36  87 W6        29.97R
BENSON         CLEAR     37  36  93 NW3       29.96R
ORTONVILLE     CLEAR     48  37  66 NW7       29.98R
MADISON        CLEAR     46  39  76 W9        29.98R
WILLMAR        FAIR      43  36  75 W6        29.97R
$$
MNZ033>034-036-042>043-049>051-058-059-200900-
   Central Minnesota

CITY           SKY/WX    TMP DP  RH WIND       PRES   REMARKS
ST CLOUD       CLEAR     47  40  76 NW6       29.91S
SAUK CENTRE    FAIR      42  38  87 W6        29.94R
PAYNESVILLE    CLEAR     37  37  97 SW6       29.94S
AITKIN         CLEAR     43  37  81 CALM      29.88R
PINE RIVER     CLEAR     37  36  93 CALM      29.95R
BRAINERD       CLEAR     46  41  82 NW3       29.91R
STAPLES        CLEAR     43  39  87 W6        29.92R
LONG PRAIRIE   FAIR      46  41  81 W8        29.93S
LITTLE FALLS   CLEAR     43  37  81 CALM      29.92R
LITCHFIELD     CLEAR     48  45  87 W5        29.94S
BUFFALO        CLEAR     49  41  73 CALM      29.92F
MAPLE LAKE     CLEAR     49  43  79 W3        29.92S
$$
MNZ037-044-045-052-053-200900-
   East Central Minnesota

CITY           SKY/WX    TMP DP  RH WIND       PRES   REMARKS
PRINCETON      CLEAR     45  39  81 W3        29.91R
MORA           CLEAR     43  37  81 W3        29.90S
CAMBRIDGE      CLEAR     48  37  66 W3        29.88S
RUSH CITY      PTCLDY    45  40  84 W3        29.89R
MOOSE LAKE     CLEAR     46  39  76 NW8       29.85S
HINCKLEY       FAIR      46  41  81 W5        29.88R
CLOQUET        CLEAR     46  39  76 W8        29.85S
MCGREGOR       CLEAR     46  41  81 W5        29.88S
$$
MNZ071>073-080-081-089-090-097-098-200900-
   Southwest Minnesota

CITY           SKY/WX    TMP DP  RH WIND       PRES   REMARKS
MONTEVIDEO     CLEAR     45  37  76 NW7       29.98R
GRANITE FALLS  CLEAR     38  35  87 CALM      29.98S
CANBY          CLEAR     47  40  77 W7        29.99S
MARSHALL       CLEAR     45  36  70 W8        29.97R
REDWOOD FALLS  CLEAR     46  38  73 W9        29.95S
OLIVIA         CLEAR     43  37  81 W5        29.95R
PIPESTONE      CLEAR     41  36  81 CALM      30.00R
WINDOM         CLEAR     41  36  81 W3        29.98R
WORTHINGTON    CLEAR     43  36  75 NW5       30.00R
JACKSON        CLEAR     45  36  70 NW8       29.98R
TRACY          CLEAR     46  38  75 W6        29.98S
SLAYTON        CLEAR     42  37  83 CALM      30.00R
$$
MNZ065>067-074>077-082>085-091>093-200900-
   South Central Minnesota

CITY           SKY/WX    TMP DP  RH WIND       PRES   REMARKS
MANKATO        CLEAR     50  37  62 NW7       29.94R
NEW ULM        CLEAR     46  41  81 NW7       29.95R
ST JAMES       CLEAR     43  37  81 W8        29.96S
FAIRMONT       CLEAR     48  36  61 NW9       29.95S
GLENCOE        CLEAR     50  43  78 W7        29.92S
FARIBAULT      CLEAR     48  43  81 NW5       29.92R
OWATONNA       CLEAR     43  37  81 CALM      29.92R
WASECA         CLEAR     43  34  70 W5        29.94R
ALBERT LEA     CLEAR     52  43  71 NW6       29.92R
$$
MNZ078>079-086>088-094>096-200900-
   Southeast Minnesota

CITY           SKY/WX    TMP DP  RH WIND       PRES   REMARKS
ROCHESTER      CLEAR     48  41  76 NW8       29.90R
RED WING       CLEAR     50  43  76 W5        29.88R
STANTON        CLEAR     47  40  77 W7        29.90R
DODGE CENTER   CLEAR     48  43  81 NW10      29.90R
WINONA         CLEAR     48  43  81 CALM      29.86R
AUSTIN         CLEAR     48  41  76 NW8       29.90R
PRESTON        CLEAR     48  41  77 NW13      29.88R
$$
ABBREVIATIONS USED IN REMARKS
   TC - TEMPERATURES IN CELSIUS
  WCI - WIND CHILL INDEX
   HX - HEAT INDEX
  VSB - VISIBILITY
$$


USA.gov is the U.S. government's official web portal to all federal, state and local government web resources and services.